Simultaneous Nadir Overpasses (SNOs) Predictions

Prediction of SNOs between GOES-15 and METOP-B Satellite Orbit:

Table of predicted SNOs for the next 14.0 days since TLE Epoch: 10/24/2025
Index Date Time (GOES-15) GOES-15 Lat,Lon METOP-B Lat,Lon Distance(km) Time Diff (sec)
1 10/25/2025 17:09:44 -0.67, 61.58 -1.39, 58.24 379.94 80
2 10/26/2025 16:46:31 -0.67, 61.59 -0.32, 63.21 184.08 80
3 10/28/2025 05:05:34 0.68, 61.50 1.30, 58.59 330.32 80
4 10/29/2025 04:47:41 0.68, 61.51 0.22, 63.57 233.99 80
5 10/30/2025 17:06:50 -0.68, 61.66 -1.26, 58.93 309.84 80
6 10/31/2025 16:43:36 -0.68, 61.68 -0.18, 63.91 253.89 80
7 11/02/2025 05:02:39 0.69, 61.60 1.21, 59.30 261.70 80
8 11/03/2025 04:44:46 0.69, 61.61 0.07, 64.26 302.34 80
9 11/04/2025 17:03:55 -0.68, 61.76 -1.15, 59.64 241.91 80
10 11/05/2025 16:40:41 -0.69, 61.79 -0.06, 64.61 321.22 80
11 11/07/2025 04:59:43 0.69, 61.73 1.08, 60.00 196.36 80
